Location: Argonnex
(45.9500°N, 6.1333°E)
Time: 04:37:45
(UTC+00:00)

Cosmos 2266 Rocket - Pass Details

Date: 10 August 2024
Orbit: 933 x 1008 km, 82.9° (Epoch: 08 September)

Event Time Altitude Azimuth Distance (km) Brightness Sun altitude
Rises 23:54:22 0° 2° (N) 3,602 8.2 -28.5°
Reaches altitude 10° 23:57:32 10° 18° (NNE) 2,653 7.2 -28.5°
Maximum altitude 00:02:00 21° 66° (ENE) 1,969 5.8 -28.4°
Enters shadow 00:05:13 14° 104° (ESE) 2,347 5.9 -28.3°
